TimeEDT,TemperatureF,Dew PointF,Humidity,Sea Level PressureIn,VisibilityMPH,Wind Direction,Wind SpeedMPH,Gust SpeedMPH,PrecipitationIn,Events,Conditions,WindDirDegrees,DateUTC
12:53 AM,78.1,71.1,79,29.98,10.0,NE,3.5,-,N/A,,Clear,40,2013-09-04 04:53:00
1:53 AM,77.0,71.1,82,29.98,10.0,Calm,Calm,-,N/A,,Clear,0,2013-09-04 05:53:00
2:53 AM,75.9,72.0,87,29.97,10.0,South,4.6,-,N/A,,Mostly Cloudy,170,2013-09-04 06:53:00
3:53 AM,75.9,72.0,87,29.97,9.0,SW,5.8,-,N/A,,Clear,220,2013-09-04 07:53:00
4:53 AM,75.0,72.0,90,29.98,7.0,West,3.5,-,N/A,,Clear,270,2013-09-04 08:53:00
5:53 AM,75.9,72.0,87,29.99,7.0,Calm,Calm,-,N/A,,Clear,0,2013-09-04 09:53:00
6:53 AM,75.0,72.0,90,30.00,7.0,Calm,Calm,-,N/A,,Partly Cloudy,0,2013-09-04 10:53:00
7:53 AM,75.9,73.0,91,30.02,5.0,SW,3.5,-,N/A,,Clear,220,2013-09-04 11:53:00
8:53 AM,79.0,73.9,84,30.04,6.0,West,4.6,-,N/A,,Haze,280,2013-09-04 12:53:00
9:53 AM,82.9,73.0,72,30.05,8.0,West,4.6,-,N/A,,Clear,280,2013-09-04 13:53:00
10:53 AM,86.0,73.0,65,30.06,9.0,Variable,3.5,-,N/A,,Clear,0,2013-09-04 14:53:00
11:53 AM,88.0,73.9,63,30.06,10.0,Calm,Calm,-,N/A,,Partly Cloudy,0,2013-09-04 15:53:00
12:53 PM,90.0,73.9,59,30.05,10.0,South,4.6,-,N/A,,Scattered Clouds,190,2013-09-04 16:53:00
1:53 PM,90.0,73.9,59,30.04,10.0,Variable,4.6,-,N/A,,Scattered Clouds,0,2013-09-04 17:53:00
2:53 PM,91.0,73.0,55,30.03,10.0,Calm,Calm,-,N/A,,Mostly Cloudy,0,2013-09-04 18:53:00
3:20 PM,91.4,73.4,55,30.02,10.0,SW,5.8,-,N/A,Thunderstorm,Thunderstorm,220,2013-09-04 19:20:00
3:46 PM,91.4,73.4,55,30.01,10.0,South,6.9,-,N/A,,Mostly Cloudy,190,2013-09-04 19:46:00
3:50 PM,59.0,44.6,59,30.14,10.0,North,10.4,-,N/A,,Clear,10,2013-09-04 19:50:00
3:53 PM,91.0,72.0,53,30.00,10.0,WSW,5.8,-,N/A,,Mostly Cloudy,250,2013-09-04 19:53:00
4:13 PM,93.2,73.4,52,30.00,10.0,WSW,6.9,-,N/A,Thunderstorm,Thunderstorm,250,2013-09-04 20:13:00
4:53 PM,84.0,71.1,65,30.01,9.0,ESE,15.0,-,0.00,Rain-Thunderstorm,Light Thunderstorms and Rain,120,2013-09-04 20:53:00
5:41 PM,80.6,71.6,74,30.02,10.0,ESE,5.8,-,0.00,,Mostly Cloudy,110,2013-09-04 21:41:00
5:53 PM,81.0,72.0,74,30.02,10.0,ESE,5.8,-,0.00,,Mostly Cloudy,110,2013-09-04 21:53:00
6:53 PM,81.0,72.0,74,30.02,10.0,SSE,4.6,-,N/A,,Mostly Cloudy,160,2013-09-04 22:53:00
7:53 PM,80.1,73.0,79,30.02,10.0,Calm,Calm,-,N/A,,Mostly Cloudy,0,2013-09-04 23:53:00
8:53 PM,80.1,75.0,85,30.05,10.0,SSW,5.8,-,N/A,,Mostly Cloudy,200,2013-09-05 00:53:00
9:31 PM,80.6,75.2,84,30.07,10.0,NW,6.9,-,N/A,Thunderstorm,Thunderstorm,310,2013-09-05 01:31:00
9:53 PM,80.1,73.9,81,30.08,10.0,NNW,8.1,-,N/A,Thunderstorm,Thunderstorm,330,2013-09-05 01:53:00
10:53 PM,78.1,73.9,87,30.11,10.0,WNW,6.9,-,0.00,Thunderstorm,Thunderstorm,290,2013-09-05 02:53:00
11:17 PM,75.2,71.6,89,30.11,2.0,WNW,13.8,-,0.02,Rain-Thunderstorm,Light Thunderstorms and Rain,290,2013-09-05 03:17:00
11:35 PM,75.2,71.6,89,30.10,5.0,North,8.1,-,0.21,Rain-Thunderstorm,Light Thunderstorms and Rain,10,2013-09-05 03:35:00
11:48 PM,75.2,71.6,89,30.09,7.0,NNE,3.5,-,0.24,Rain,Light Rain,30,2013-09-05 03:48:00
11:53 PM,75.0,72.0,90,30.09,9.0,Calm,Calm,-,0.24,Rain,Light Rain,0,2013-09-05 03:53:00